Wind_Speed
39 39 39 40 40 41 41 41 41 41 42 43 43 44 44 45 45 45 45 45 45 45 45 45 44 44 44 44 44 45 44 43 43 43 43 43 42 43 43 43 44 44 44
39 40 40 40 40 41 41 42 42 42 42 43 44 44 45 45 44 45 45 46 46 46 47 47 46 46 46 46 45 45 45 45 45 45 45 45 45 44 44 44 45 45 46
40 41 41 41 41 41 42 42 42 42 42 43 43 44 44 45 46 45 45 46 47 47 47 48 48 47 47 47 46 46 47 46 47 47 47 47 48 47 46 47 46 46 47
40 41 41 41 41 42 42 42 42 42 42 42 42 43 44 45 46 47 47 46 47 48 49 48 48 48 48 48 48 49 49 48 47 48 49 49 48 48 48 47 46 46 47
39 40 41 41 42 42 42 42 41 41 42 42 43 43 44 45 46 46 47 48 48 49 49 49 48 48 48 48 49 49 50 50 49 49 49 49 50 50 49 49 48 47 48
39 40 41 41 42 43 43 42 42 42 42 43 43 44 45 46 46 47 48 49 49 49 50 51 50 50 49 49 49 50 50 50 51 51 51 50 51 51 51 51 50 50 50
39 39 40 41 42 43 43 43 43 43 42 43 44 44 45 46 47 47 47 48 49 50 50 51 51 51 51 50 50 50 50 50 51 51 52 52 53 53 53 53 53 52 52
40 40 41 41 42 42 43 43 43 43 43 44 44 45 45 45 46 47 48 48 48 49 50 50 51 51 51 50 50 50 50 51 51 51 52 53 53 54 55 54 54 55 54
40 40 41 41 42 42 42 42 43 44 44 44 44 45 45 46 47 48 48 49 48 49 49 50 51 51 51 51 51 50 50 51 52 53 54 54 55 55 55 55 55 56 57
39 40 40 40 41 41 42 42 43 44 45 45 45 45 46 46 47 48 48 48 49 49 49 49 50 50 50 49 50 50 52 53 53 54 54 54 55 56 56 56 57 58 58
38 38 39 40 40 41 42 43 44 44 44 45 45 46 46 46 46 46 47 48 48 49 50 50 51 51 51 51 50 50 51 53 53 54 54 54 55 56 57 57 57 58 59
37 37 37 38 39 40 41 42 43 43 43 44 44 45 45 45 45 45 46 46 47 48 49 50 51 52 52 52 52 52 52 52 53 53 54 53 54 55 56 57 56 57 57
36 36 36 37 38 39 40 40 41 41 42 42 42 43 43 44 44 44 44 45 46 47 48 49 50 51 52 52 52 52 53 53 53 53 54 54 54 56 56 57 57 57 58
35 36 36 37 37 38 39 40 40 40 41 41 42 42 42 43 43 44 44 44 45 46 47 48 49 50 51 52 52 53 53 54 54 54 54 55 55 56 58 58 58 58 58
35 36 36 36 37 37 38 38 38 38 39 40 40 41 41 42 43 43 44 44 44 45 46 47 48 49 50 51 51 52 53 54 55 55 55 56 57 58 59 60 60 59 59
35 36 36 36 36 37 37 37 37 37 38 39 40 40 41 41 42 43 43 44 44 45 46 46 47 48 49 50 51 52 53 54 55 56 57 57 58 59 59 60 61 61 60
35 35 35 36 36 36 37 36 36 37 38 38 39 40 41 41 42 42 43 43 44 44 45 46 46 47 48 49 50 52 53 54 55 56 57 58 58 59 59 60 60 61 60
35 35 35 35 36 36 36 36 36 37 37 38 39 39 40 41 42 42 43 43 44 44 44 45 46 46 47 48 49 50 51 53 54 55 55 56 57 57 57 58 58 58 58
34 35 35 35 36 36 37 37 37 37 38 38 38 38 39 40 40 41 42 42 43 43 43 44 45 46 46 47 48 48 49 50 52 52 52 53 53 54 55 55 56 56 57
34 34 35 35 35 36 36 37 37 38 38 38 39 39 39 40 40 41 42 42 43 43 43 44 44 45 46 46 47 47 48 49 49 49 50 51 52 52 52 53 53 53 54
35 35 35 35 35 35 36 37 37 38 38 39 39 40 40 40 41 41 42 42 43 43 43 44 44 44 45 46 46 47 47 47 47 48 49 49 50 50 50 51 51 51 52
36 36 36 36 36 36 36 37 37 38 38 39 39 40 40 40 41 41 41 41 42 42 43 44 44 44 44 44 45 45 45 45 46 46 46 47 47 48 48 49 49 50 50
36 37 37 37 37 36 37 37 37 38 38 38 38 39 39 39 39 40 40 40 41 41 42 42 43 43 44 44 43 43 44 44 44 44 45 45 46 46 46 47 48 49 49
36 36 36 36 37 37 37 37 37 37 37 38 38 38 39 38 38 38 39 39 39 39 40 41 41 41 42 42 43 43 43 43 44 44 45 45 45 46 46 46 47 47 48
35 35 35 35 36 35 35 35 35 36 36 36 37 37 37 37 37 37 38 38 38 38 38 39 39 40 40 41 42 42 42 42 43 43 44 44 45 45 46 46 46 46 46
34 34 34 34 34 34 34 34 34 34 34 34 34 34 35 35 36 36 36 36 36 37 37 37 38 38 39 39 39 39 40 40 40 41 42 42 43 43 44 45 45 46 46
Wind_Direction
265 266 267 268 269 269 269 269 268 269 269 268 267 266 264 263 263 261 260 259 258 258 258 258 259 258 258 258 257 256 256 257 257 256 256 256 255 253 253 253 253 252 250
266 266 267 268 269 269 270 270 270 269 270 269 267 266 264 263 263 262 261 259 258 258 258 257 258 258 259 258 258 257 257 257 257 257 257 256 256 255 253 254 254 252 251
267 267 268 269 269 270 270 270 270 269 269 268 268 266 265 264 263 262 261 260 259 258 258 258 258 258 258 259 258 257 258 257 257 257 257 258 258 256 255 255 255 253 252
268 269 269 270 270 270 270 270 270 270 269 269 268 267 266 265 264 263 262 261 260 259 258 258 258 257 257 257 257 258 258 258 257 257 257 257 257 256 256 256 255 253 252
269 270 270 270 270 270 269 269 269 270 269 269 269 267 266 265 265 264 263 263 262 260 259 258 258 257 257 258 257 257 258 257 257 257 257 256 256 256 256 255 253 252 251
271 271 271 271 270 269 268 268 269 269 270 269 268 267 266 266 266 265 265 264 263 263 261 261 259 259 258 258 258 257 257 257 257 257 256 256 256 256 256 256 254 252 252
273 274 273 272 271 269 267 268 269 270 270 270 269 268 267 267 266 266 265 264 263 263 262 262 261 260 259 258 257 257 258 257 256 256 256 256 257 257 257 257 256 254 253
273 274 274 273 272 270 268 268 269 270 271 271 270 269 268 267 267 266 265 264 263 262 262 261 261 261 261 259 258 258 258 258 257 257 257 257 257 257 257 257 257 256 255
275 275 275 274 272 270 269 269 270 271 272 272 271 269 268 268 268 267 267 265 264 263 262 262 262 261 261 261 260 258 258 259 258 258 258 258 257 257 257 257 257 257 256
276 277 276 275 273 272 270 270 271 272 272 271 271 270 269 270 270 269 268 267 265 264 263 263 263 262 261 260 260 259 259 259 260 259 259 258 258 257 257 258 258 258 258
278 278 277 276 274 273 272 272 272 272 272 272 271 270 270 270 271 271 270 267 266 265 264 263 263 262 262 261 260 261 261 261 261 260 259 259 258 257 257 258 258 258 258
279 279 278 277 276 275 274 274 274 273 273 272 272 271 270 270 271 271 270 269 268 267 266 265 264 263 263 263 262 262 262 262 262 261 260 259 258 258 258 259 259 259 259
281 280 279 278 277 276 275 275 275 274 273 272 272 271 270 270 270 270 270 269 268 268 267 266 265 264 264 264 263 263 263 263 263 262 261 260 260 260 260 260 261 260 260
281 281 281 280 279 279 278 277 275 274 273 273 273 272 271 270 271 270 270 270 269 268 268 268 267 265 264 263 263 264 264 264 263 262 262 262 262 261 262 262 262 262 262
281 282 281 280 280 280 279 277 276 274 274 274 274 273 272 272 271 271 271 271 270 270 269 269 268 267 265 264 264 264 264 264 263 263 263 262 262 262 262 262 262 262 262
281 282 282 281 280 280 280 279 277 275 275 276 276 275 274 273 272 273 272 271 271 271 271 270 269 268 267 266 266 266 266 265 265 265 265 264 263 263 263 262 261 262 263
282 281 282 281 281 281 281 280 278 277 277 278 278 277 276 275 274 274 273 272 272 272 271 270 269 269 268 268 268 268 267 266 266 267 266 265 264 264 263 262 262 262 263
281 281 281 281 281 280 280 280 279 279 279 279 279 279 277 276 275 275 274 274 273 273 272 271 270 270 270 270 270 269 269 268 267 267 266 265 264 264 264 263 263 263 263
282 282 281 281 281 280 280 280 280 280 280 280 280 281 280 278 276 276 276 275 274 274 273 272 272 271 271 272 271 270 270 269 268 267 266 265 264 264 264 264 264 263 262
283 283 282 282 282 280 280 280 281 281 280 281 281 281 281 280 278 277 277 277 276 275 275 274 274 273 273 272 272 272 271 271 269 267 266 265 265 265 265 265 264 264 263
283 283 283 283 282 282 282 282 283 283 282 282 282 282 282 281 280 279 278 278 277 276 276 276 275 275 274 273 273 272 272 271 270 269 268 267 265 265 265 265 264 264 263
282 282 282 282 283 283 284 284 284 284 284 284 283 282 282 281 280 280 279 279 279 278 277 277 276 276 276 275 274 273 273 272 271 270 269 268 266 265 264 264 264 264 264
283 283 283 282 283 283 284 285 285 285 285 285 284 283 283 282 282 281 281 280 279 279 278 278 277 276 276 276 275 274 273 272 272 271 270 268 267 266 265 264 264 264 264
285 284 284 284 284 284 284 285 285 285 285 285 285 284 283 283 282 282 282 281 281 280 279 279 277 277 277 276 275 274 273 272 272 271 271 269 268 267 266 264 264 264 264
286 286 285 285 284 284 284 285 285 285 286 286 286 285 284 283 282 282 282 281 281 281 280 279 278 278 277 276 275 275 273 273 272 272 271 270 268 267 265 264 264 264 263
286 286 286 286 285 285 284 284 284 285 286 287 287 287 287 286 284 284 284 283 282 281 281 280 279 279 279 277 276 275 274 274 274 273 272 271 270 268 267 265 265 264 264
Height
5714 5713 5712 5712 5711 5710 5709 5708 5707 5706 5704 5703 5702 5701 5700 5699 5699 5700 5701 5702 5703 5704 5705 5707 5708 5710 5711 5713 5714 5715 5716 5717 5718 5719 5721 5722 5722 5724 5725 5727 5729 5731 5733
5703 5702 5702 5701 5700 5699 5697 5696 5695 5694 5692 5691 5689 5688 5687 5687 5687 5687 5688 5689 5691 5692 5693 5695 5697 5698 5700 5701 5702 5703 5705 5706 5707 5708 5709 5710 5712 5713 5714 5716 5717 5719 5721
5693 5692 5691 5690 5689 5687 5685 5684 5682 5681 5680 5678 5677 5676 5675 5674 5675 5675 5675 5676 5677 5679 5681 5682 5684 5686 5687 5689 5690 5692 5693 5694 5695 5696 5697 5698 5700 5702 5703 5704 5706 5707 5709
5682 5680 5680 5678 5677 5675 5673 5672 5670 5669 5668 5666 5665 5664 5663 5662 5662 5662 5663 5663 5664 5666 5667 5669 5671 5673 5674 5676 5677 5679 5680 5681 5682 5684 5685 5686 5688 5689 5691 5693 5694 5695 5697
5670 5669 5668 5666 5665 5663 5661 5660 5659 5657 5656 5654 5653 5652 5651 5650 5650 5650 5650 5650 5651 5652 5654 5656 5657 5659 5661 5662 5664 5666 5667 5668 5670 5671 5672 5673 5675 5676 5678 5680 5682 5683 5685
5659 5658 5656 5655 5653 5651 5650 5649 5647 5646 5644 5643 5641 5640 5639 5638 5637 5637 5637 5637 5638 5639 5640 5641 5643 5645 5647 5649 5650 5652 5653 5654 5656 5658 5659 5660 5662 5663 5664 5666 5668 5670 5672
5648 5646 5645 5643 5641 5639 5638 5637 5635 5634 5632 5630 5629 5627 5626 5625 5624 5624 5624 5624 5624 5625 5626 5627 5629 5631 5633 5635 5636 5638 5639 5641 5642 5644 5645 5647 5648 5650 5651 5652 5654 5656 5658
5636 5635 5633 5631 5629 5628 5626 5625 5624 5622 5620 5618 5616 5615 5613 5612 5611 5611 5610 5610 5611 5612 5612 5614 5615 5617 5619 5621 5622 5624 5626 5627 5628 5630 5631 5632 5634 5635 5637 5638 5640 5642 5644
5625 5623 5621 5619 5617 5616 5614 5613 5612 5610 5608 5606 5604 5603 5601 5600 5599 5598 5597 5597 5597 5598 5599 5600 5602 5603 5605 5607 5608 5610 5612 5613 5614 5615 5617 5618 5619 5621 5622 5623 5625 5627 5629
5613 5611 5609 5607 5605 5604 5603 5601 5600 5598 5596 5594 5592 5590 5589 5588 5586 5585 5585 5584 5584 5585 5586 5587 5588 5589 5591 5593 5594 5596 5597 5599 5600 5601 5602 5603 5604 5606 5607 5609 5610 5611 5613
5602 5600 5598 5596 5594 5592 5591 5589 5587 5585 5583 5581 5580 5578 5577 5576 5574 5573 5572 5572 5572 5572 5573 5574 5574 5576 5577 5578 5580 5581 5583 5584 5585 5586 5587 5588 5589 5590 5592 5593 5595 5596 5598
5591 5589 5587 5585 5583 5581 5579 5577 5575 5573 5571 5570 5568 5566 5565 5563 5562 5561 5560 5559 5559 5559 5560 5560 5561 5562 5563 5564 5565 5567 5568 5569 5570 5571 5572 5573 5574 5575 5576 5577 5579 5580 5582
5581 5579 5576 5574 5572 5570 5567 5566 5563 5561 5559 5558 5556 5554 5553 5551 5550 5549 5548 5547 5547 5547 5547 5547 5548 5548 5549 5550 5551 5552 5553 5554 5555 5556 5557 5558 5558 5560 5561 5562 5563 5564 5566
5571 5568 5566 5564 5561 5559 5556 5554 5552 5550 5548 5546 5544 5543 5541 5540 5538 5537 5536 5535 5535 5534 5534 5534 5534 5535 5535 5536 5537 5538 5539 5539 5540 5541 5542 5542 5543 5544 5545 5546 5547 5548 5549
5560 5558 5555 5553 5551 5548 5546 5543 5541 5539 5537 5535 5533 5531 5530 5528 5527 5525 5524 5523 5523 5522 5521 5521 5521 5521 5522 5522 5523 5523 5523 5524 5525 5525 5526 5527 5527 5528 5529 5529 5531 5531 5533
5550 5547 5545 5542 5540 5537 5535 5532 5530 5528 5526 5524 5522 5520 5518 5517 5515 5514 5512 5511 5510 5510 5509 5508 5508 5508 5508 5508 5508 5508 5508 5508 5509 5510 5510 5511 5511 5511 5512 5512 5513 5514 5515
5540 5537 5535 5532 5530 5527 5525 5522 5520 5518 5516 5513 5511 5509 5507 5505 5504 5502 5501 5499 5498 5497 5496 5495 5495 5494 5494 5493 5493 5492 5492 5493 5493 5493 5494 5494 5494 5494 5494 5495 5496 5497 5497
5529 5527 5525 5522 5519 5517 5514 5512 5510 5507 5505 5503 5500 5498 5496 5494 5492 5490 5489 5487 5486 5485 5484 5483 5482 5481 5480 5479 5478 5477 5477 5477 5477 5477 5477 5477 5477 5477 5477 5478 5479 5479 5481
5519 5517 5514 5512 5509 5506 5504 5502 5499 5497 5494 5492 5489 5487 5485 5482 5480 5479 5477 5475 5474 5473 5471 5470 5469 5468 5467 5465 5464 5463 5462 5462 5462 5461 5461 5460 5461 5461 5461 5461 5462 5463 5464
5509 5506 5504 5501 5498 5496 5494 5491 5489 5486 5483 5481 5479 5476 5474 5471 5469 5467 5465 5463 5462 5460 5459 5457 5456 5454 5453 5452 5450 5448 5448 5447 5447 5446 5446 5446 5446 5445 5444 5445 5445 5446 5447
5498 5496 5493 5491 5488 5485 5483 5481 5478 5475 5472 5470 5467 5465 5462 5460 5457 5455 5453 5451 5449 5447 5446 5445 5443 5441 5440 5438 5436 5435 5434 5433 5432 5432 5431 5431 5430 5430 5429 5429 5430 5431 5431
5487 5485 5482 5480 5477 5474 5472 5470 5467 5464 5461 5458 5456 5453 5450 5448 5445 5443 5441 5439 5436 5435 5433 5431 5430 5428 5426 5425 5423 5421 5420 5419 5418 5418 5417 5416 5416 5415 5415 5415 5415 5415 5416
5476 5473 5471 5469 5466 5463 5461 5458 5456 5453 5450 5447 5444 5441 5438 5436 5433 5431 5429 5426 5424 5422 5420 5418 5416 5415 5413 5411 5410 5408 5407 5405 5405 5404 5403 5402 5401 5401 5400 5401 5400 5401 5401
5465 5462 5460 5457 5455 5452 5450 5447 5444 5441 5438 5435 5432 5430 5427 5424 5421 5419 5417 5414 5412 5410 5407 5406 5404 5402 5400 5398 5396 5395 5394 5392 5391 5390 5389 5388 5387 5387 5386 5386 5386 5386 5386
5454 5451 5448 5446 5443 5441 5438 5436 5433 5430 5427 5424 5421 5418 5415 5412 5410 5407 5405 5402 5400 5397 5395 5393 5391 5389 5388 5385 5383 5382 5381 5379 5378 5377 5376 5375 5374 5373 5372 5372 5372 5372 5372
5443 5440 5438 5435 5432 5430 5427 5425 5422 5419 5416 5413 5410 5407 5404 5401 5398 5396 5393 5390 5388 5385 5383 5381 5379 5377 5375 5372 5370 5369 5368 5366 5365 5363 5362 5361 5360 5359 5358 5358 5358 5358 5358